CDT,Max TemperatureF,Mean TemperatureF,Min TemperatureF,Max Dew PointF,MeanDew PointF,Min DewpointF,Max Humidity, Mean Humidity, Min Humidity, Max Sea Level PressureIn, Mean Sea Level PressureIn, Min Sea Level PressureIn, Max VisibilityMiles, Mean VisibilityMiles, Min VisibilityMiles, Max Wind SpeedMPH, Mean Wind SpeedMPH, Max Gust SpeedMPH,PrecipitationIn, CloudCover, Events, WindDirDegrees
2013-8-1,87,70,53,64,57,48,88,67,30,30.13,30.05,29.93,10,10,7,8,2,,0.00,0,,215
2013-8-2,80,71,60,66,60,55,83,71,53,30.06,29.97,29.93,10,10,10,13,2,25,0.00,1,,33
2013-8-3,78,69,57,57,54,48,82,63,34,30.22,30.15,30.07,10,10,10,8,3,,0.00,2,,42
2013-8-4,80,65,50,64,55,45,82,65,39,30.22,30.15,30.06,10,10,7,14,2,20,0.00,1,,136
2013-8-5,82,73,64,72,65,59,88,77,62,30.06,29.94,29.85,10,8,2,10,5,,0.00,2,,220
2013-8-6,87,74,60,72,64,55,88,75,55,29.96,29.87,29.82,10,7,0,10,2,,0.00,1,,207
2013-8-7,80,71,62,64,61,57,88,71,45,30.05,29.96,29.85,10,9,3,12,2,9,0.00,0,,358
2013-8-8,78,66,53,64,58,48,88,72,54,30.06,30.04,29.99,10,10,7,7,1,,0.00,1,,119
2013-8-9,78,68,55,64,58,52,88,70,44,30.17,30.10,30.05,10,10,7,10,2,16,0.00,2,,15
2013-8-10,82,66,51,61,55,46,88,66,42,30.24,30.18,30.11,10,10,7,8,2,,0.00,0,,201
2013-8-11,84,70,57,66,61,52,88,68,51,30.15,30.09,30.02,10,10,10,12,4,17,0.00,1,,203
2013-8-12,84,72,59,64,59,54,88,65,37,30.11,30.06,30.03,10,8,0,15,4,16,0.00,2,,15
2013-8-13,78,63,48,57,50,45,88,65,32,30.20,30.15,30.11,10,10,7,9,2,9,0.00,0,,9
2013-8-14,75,62,48,55,50,43,87,66,38,30.24,30.19,30.13,10,10,5,8,1,,0.00,1,,132
2013-8-15,64,60,57,55,55,52,88,78,68,30.16,30.14,30.10,10,9,2,13,4,20,0.00,7,,144
2013-8-16,75,65,53,57,54,48,88,71,44,30.23,30.19,30.15,10,10,7,8,1,,0.00,4,,156
2013-8-17,78,63,48,59,51,43,88,66,36,30.24,30.20,30.15,10,10,7,9,2,16,0.00,1,,156
2013-8-18,80,64,48,61,53,45,88,67,39,30.19,30.15,30.09,10,9,7,13,2,17,0.00,1,,185
2013-8-19,84,70,55,64,60,50,88,71,51,30.11,30.05,29.99,10,8,3,16,4,23,0.00,1,,184
2013-8-20,87,78,69,70,66,63,78,67,55,30.00,29.98,29.95,10,10,7,18,10,25,0.00,0,,190
2013-8-21,89,79,68,72,66,63,83,67,46,30.03,30.00,29.98,10,10,5,16,9,23,0.00,0,,196
2013-8-22,80,72,62,70,64,57,83,73,58,30.12,30.09,30.03,10,10,5,12,1,18,0.00,0,,197
2013-8-23,89,74,60,72,64,55,83,71,46,30.12,30.09,30.04,10,9,2,10,2,,0.00,0,,158
2013-8-24,91,78,66,72,66,63,88,69,43,30.14,30.09,30.06,10,9,5,20,4,26,0.00,0,,173
2013-8-25,91,81,71,72,69,64,83,66,52,30.17,30.12,30.09,10,10,5,16,9,23,0.00,0,,185
2013-8-26,93,82,71,72,69,66,83,65,46,30.13,30.07,29.99,10,10,10,15,9,22,0.00,0,,196
2013-8-27,93,82,71,72,68,64,78,63,44,30.00,29.96,29.92,10,10,4,16,10,24,0.00,0,,201
2013-8-28,93,78,64,68,63,57,83,63,30,30.04,30.01,29.96,10,10,5,9,3,17,0.00,0,,221
2013-8-29,93,78,62,73,65,57,88,67,32,30.05,30.01,29.95,10,10,7,12,2,16,0.00,0,,184
2013-8-30,95,80,66,73,68,61,88,67,44,29.95,29.90,29.86,10,10,4,12,2,,0.00,0,,284
2013-8-31,91,78,64,70,64,59,88,69,38,29.91,29.87,29.82,10,10,7,7,1,,0.00,0,,299